Powrót do katalogu

CHINASAT-9C

AktywnyŁącznośćGEO
NORAD 64470·PAYLOAD·🇨🇳 China

Wystrzelony Jun 20, 2025 z Xichang Satellite Launch Center

Loading…

TLE

ŚwieżeSource: Space-Track

Epoka: Sep 14, 2026, 14:14 UTC

1 64470U 25132A   26257.59338775 -.00000255  00000-0  00000-0 0  9996
2 64470   0.0090 168.9000 0002952 358.3327 132.1699  1.00272887  5040

Śledź CHINASAT-9C w czasie rzeczywistym z AllMySat

Download on the App Store